Raleigh-Durham Airport, NC

3:32 PM EST on November 22, 2017 (GMT -0500)
Raleigh-Durham International

Weather History for KRDU - December, 2013

Change the Weather History Date:

Friday, December 27, 2013

  Actual Average Record
Temperature  
Mean Temperature 39 °F 41 °F  
Max Temperature 52 °F 51 °F 76 °F (2015)
Min Temperature 26 °F 31 °F 12 °F (1948)
Degree Days  
Heating Degree Days 26 24  
Month to date heating degree days 501 573  
Since 1 July heating degree days 1153 1154  
Cooling Degree Days 0 0  
Month to date cooling degree days 13 0  
Year to date cooling degree days 1565 1728  
Moisture  
Dew Point 21 °F    
Average Humidity 54    
Maximum Humidity 81    
Minimum Humidity 26    
Precipitation  
Precipitation 0.00 in 0.10 in 0.84 in (1892)
Month to date precipitation 3.97 2.68  
Year to date precipitation 48.75 42.95  
Snow  
Snow 0.00 in 0.00 in 8.50 in (1892)
Month to date snowfall 0.0 0.4  
Since 1 July snowfall T 0.5  
Snow Depth 0.00 in    
Sea Level Pressure  
Sea Level Pressure 30.42 in    
Wind  
Wind Speed 1 mph (NNE)    
Max Wind Speed 8 mph    
Max Gust Speed 12 mph    
Visibility 10 miles    
Events      
T = Trace of Precipitation, MM = Missing Value Source: NWS Daily Summary

Daily Weather History Graph

Daily Weather History Graph

Search for Another Location

Airport or City:

Trip Planner

Search our weather history database for the weather conditions in past years. The results will help you decide how hot, cold, wet, or windy it might be!

Date:

Astronomy

Dec. 27, 2013 Rise Set
Actual Time 7:24 AM EST 5:08 PM EST
Civil Twilight 6:55 AM EST 5:37 PM EST
Nautical Twilight 6:23 AM EST 6:09 PM EST
Astronomical Twilight 5:52 AM EST 6:40 PM EST
Moon 2:00 AM EST (12/27) 1:12 PM EST (12/27)
Length of Visible Light 10h 41m
Length of Day
9h 44m
Waning Crescent, 28% of the Moon is Illuminated
Dec 27
Waning Crescent
Jan 1
New
Jan 7
First Quarter
Jan 15
Full
Jan 24
Last Quarter

Hourly Weather History & Observations

Time (EST) Temp. Windchill Dew Point Humidity Pressure Visibility Wind Dir Wind Speed Gust Speed Precip Events Conditions
12:51 AM 33.1 °F - 19.9 °F 59% 30.38 in 10.0 mi Calm Calm - N/A   Scattered Clouds
1:51 AM 30.9 °F - 21.0 °F 67% 30.38 in 10.0 mi Calm Calm - N/A   Scattered Clouds
2:51 AM 30.0 °F - 21.0 °F 69% 30.38 in 10.0 mi Calm Calm - N/A   Scattered Clouds
3:51 AM 28.0 °F - 19.9 °F 72% 30.39 in 10.0 mi Calm Calm - N/A   Scattered Clouds
4:51 AM 28.0 °F - 21.9 °F 78% 30.40 in 10.0 mi Calm Calm - N/A   Partly Cloudy
5:51 AM 27.0 °F - 21.0 °F 78% 30.42 in 10.0 mi Calm Calm - N/A   Partly Cloudy
6:51 AM 27.0 °F - 21.0 °F 78% 30.43 in 10.0 mi Calm Calm - N/A   Partly Cloudy
7:51 AM 27.0 °F - 21.0 °F 78% 30.44 in 10.0 mi Calm Calm - N/A   Partly Cloudy
8:51 AM 32.0 °F - 26.1 °F 79% 30.45 in 10.0 mi Calm Calm - N/A   Scattered Clouds
9:51 AM 41.0 °F 39.0 °F 26.1 °F 55% 30.47 in 10.0 mi NNW 3.5 mph - N/A   Scattered Clouds
10:51 AM 44.1 °F 40.8 °F 21.0 °F 40% 30.47 in 10.0 mi ENE 5.8 mph - N/A   Scattered Clouds
11:51 AM 46.0 °F 43.9 °F 19.9 °F 35% 30.45 in 10.0 mi Variable 4.6 mph - N/A   Mostly Cloudy
12:51 PM 50.0 °F - 18.0 °F 28% 30.43 in 10.0 mi Variable 4.6 mph - N/A   Mostly Cloudy
1:51 PM 51.1 °F - 18.0 °F 27% 30.41 in 10.0 mi ENE 3.5 mph - N/A   Mostly Cloudy
2:51 PM 52.0 °F - 18.0 °F 26% 30.39 in 10.0 mi NNE 3.5 mph - N/A   Scattered Clouds
3:51 PM 52.0 °F - 18.0 °F 26% 30.39 in 10.0 mi Calm Calm - N/A   Scattered Clouds
4:51 PM 48.0 °F - 21.9 °F 36% 30.39 in 10.0 mi Calm Calm - N/A   Scattered Clouds
5:51 PM 42.1 °F - 23.0 °F 47% 30.40 in 10.0 mi Calm Calm - N/A   Scattered Clouds
6:51 PM 37.9 °F - 23.0 °F 55% 30.41 in 10.0 mi Calm Calm - N/A   Partly Cloudy
7:51 PM 36.0 °F - 21.9 °F 57% 30.43 in 10.0 mi Calm Calm - N/A   Partly Cloudy
8:51 PM 34.0 °F - 21.9 °F 61% 30.44 in 10.0 mi Calm Calm - N/A   Partly Cloudy
9:51 PM 33.1 °F - 23.0 °F 66% 30.43 in 10.0 mi Calm Calm - N/A   Partly Cloudy
10:51 PM 30.0 °F - 23.0 °F 75% 30.43 in 10.0 mi Calm Calm - N/A   Partly Cloudy
11:51 PM 30.0 °F - 24.1 °F 79% 30.42 in 10.0 mi Calm Calm - N/A   Partly Cloudy